#timestamp,LO_Frequency,Hit,StdDev 
1513947615.7,286047004.4,N
1513947635.5,286047005.5,Y
1513947655.4,286046999.9,P
1513947675.2,286046999.4,N
1513947695.0,286046997.1,N
1513947695.9,286046997.1,N
1513947715.8,286046997.6,N
1513947735.6,286046995.0,N
1513947755.5,286046998.6,N
1513947775.3,286047000.8,N
1513947795.1,286047000.0,N
1513947815.9,286046999.8,N
1513947835.7,286046998.6,N
1513947855.5,286047000.1,N
1513947875.4,286047002.1,N
1513947895.2,286046997.3,N
1513947915.1,286046996.8,N
1513947916.0,286046996.8,N
1513947935.8,286046999.5,N
1513947955.6,286047000.7,N
1513947975.5,286046998.6,N
1513947995.3,286046999.3,N
1513948015.2,286046997.4,N
1513948035.9,286046995.1,N
1513948055.7,286046997.4,N
1513948075.6,286047001.2,N
1513948095.4,286046999.8,N
1513948115.2,286047001.5,N
1513948135.1,286046999.8,N
1513948136.0,286046999.8,N
1513948155.8,286047002.5,N
1513948175.7,286047002.3,N
1513948195.5,286047000.8,N
1513948215.3,286046996.9,N
1513948235.2,286046997.7,N
1513948255.0,286046996.8,N
1513948255.9,286046996.8,N
1513948275.8,286046998.8,N
1513948295.6,286047001.0,N
1513948315.4,286046999.3,N
1513948335.3,286046999.3,N
1513948355.1,286047000.0,N
1513948375.8,286047002.3,N
1513948395.7,286046999.9,N
1513948415.5,286046998.5,N
1513948435.4,286047000.2,N
1513948455.2,286047002.2,N
1513948475.0,286047002.2,N
1513948475.9,286047002.2,N
1513948495.8,286047002.2,N
1513948515.6,286047002.7,N
1513948535.4,286046999.9,N
1513948555.3,286047002.3,N
1513948575.1,286047003.6,N
1513948595.9,286047004.2,N
1513948615.7,286047000.9,N
1513948635.5,286047002.5,N
1513948655.4,286046999.7,N
1513948675.2,286047004.2,N
1513948695.1,286047001.9,N
1513948696.0,286047001.9,N
1513948745.8,286047000.5,E
1513948755.7,286046998.5,N
1513948775.6,286046998.9,P
1513948795.4,286046997.6,P
1513948815.3,286046996.9,Y
1513948835.1,286046997.2,P
1513948855.8,286046998.9,N
1513948875.7,286046996.8,P
1513948895.5,286046998.7,N
1513948915.4,286047001.2,N
1513948935.2,286046999.3,N
1513948955.0,286047002.1,N
1513948955.9,286047002.1,N
1513948975.8,286047011.9,Y
1513948995.6,286047002.8,P
1513949015.5,286047000.7,N
1513949035.3,286047000.3,N
1513949055.1,286047000.0,N
1513949075.9,286047000.6,N
1513949095.7,286047000.9,N
1513949115.5,286047000.8,N
1513949135.4,286046999.8,N
1513949155.2,286046998.1,N
1513949175.1,286046998.7,N
1513949176.0,286046998.7,N
1513949195.8,286047001.2,N
1513949215.6,286046999.3,N
1513949235.5,286046996.5,N
1513949255.3,286046998.6,N
1513949275.1,286046998.6,N
1513949295.9,286047000.4,N
1513949315.7,286047000.8,N
1513949335.6,286046996.6,N
1513949355.4,286046997.1,N
1513949375.2,286046997.0,N
1513949395.1,286046997.6,N
1513949396.0,286046997.6,N
1513949415.8,286046997.5,N
1513949435.7,286046998.8,N
1513949455.5,286046998.8,N
1513949475.3,286047001.2,N
1513949495.2,286046999.2,N
1513949515.0,286046997.0,N
1513949515.9,286046997.0,N
1513949535.7,286046997.6,N
1513949555.6,286046996.8,N
1513949575.4,286047000.7,N
1513949595.3,286046999.9,N
1513949615.1,286047002.1,N
1513949635.8,286047002.4,N
1513949655.7,286047001.8,N
1513949675.5,286047003.7,N
1513949695.4,286047005.8,N
1513949715.2,286047004.4,N
1513949735.0,286046999.8,N
1513949735.9,286046999.8,N
1513949755.8,286047000.5,N
1513949775.6,286047000.6,N
1513949795.4,286046998.7,N
1513949815.3,286046997.5,N
1513949835.1,286046993.3,N
1513949855.9,286046995.9,N
1513949875.7,286046996.4,N
1513949895.5,286046992.5,N
1513949915.4,286046990.9,Y
1513949935.2,286046992.7,P
1513949955.1,286046988.7,P
1513949956.0,286046988.7,N
1513949975.8,286046990.3,N
1513949995.6,286046993.1,N
1513950015.5,286046994.8,N
1513950035.3,286046992.4,N
1513950055.2,286046990.1,Y
1513950075.9,286046998.8,P
1513950095.7,286047001.2,N
1513950115.6,286047002.0,N
1513950135.4,286047001.1,N
1513950155.2,286046999.3,N
1513950175.1,286046998.8,N
1513950176.0,286046998.8,N
1513950195.8,286046999.6,N
1513950215.7,286046998.4,N
1513950235.5,286046998.4,N
1513950255.3,286046998.5,N
1513950275.2,286046997.4,N
1513950295.0,286046995.5,N
1513950295.9,286046995.5,N
1513950315.8,286046996.8,N
1513950335.6,286046998.4,N
1513950355.4,286046999.7,N
1513950375.3,286047001.8,N
1513950395.1,286047003.0,N
1513950415.8,286046999.8,N
1513950435.7,286046999.8,N
1513950455.5,286047001.7,N
1513950475.4,286047000.5,N
1513950495.2,286047000.9,N
1513950515.0,286047000.8,N
1513950515.9,286047000.8,N
1513950535.8,286047001.1,N
1513950555.6,286046999.2,N
1513950575.5,286046995.0,N
1513950595.3,286046997.6,N
1513950615.1,286046998.0,N
1513950635.9,286046999.2,N
1513950655.7,286046996.8,N
1513950675.5,286046999.1,N
1513950695.4,286046998.8,N
1513950715.2,286046999.1,N
1513950735.1,286046998.3,N
1513950736.0,286046998.3,N
1513950755.8,286047000.2,N
1513950775.6,286046999.8,N
1513950795.5,286047001.1,N
1513950815.3,286046998.1,N
1513950835.2,286046998.6,N
1513950855.9,286047001.0,N
1513950875.7,286046998.1,N
1513950895.6,286046999.3,N
1513950915.4,286046997.2,N
1513950935.2,286046996.9,N
1513950955.1,286047000.9,N
1513950956.0,286047000.9,N
1513950975.8,286046998.5,N
1513950995.7,286047001.7,N
1513951015.5,286047003.7,N
1513951035.3,286046999.9,N
1513951055.2,286047001.2,N
1513951075.0,286046999.0,N
1513951075.9,286046999.0,N
1513951095.8,286047001.2,N
1513951115.6,286047000.0,N
1513951135.4,286047001.5,N
1513951155.3,286047001.9,N
1513951175.1,286047000.2,N
1513951195.8,286046999.3,N
